Regional Weather Roundup
Issued by NWS

Home | Current Version | Previous Version | Graphics & Text | Print | Product List | Glossary On
Versions: 1 2 3 4 5 6 7 8 9 10 11 12 13 14 15 16 17 18 19 20 21 22 23 24 25 26 27 28 29 30 31 32 33 34 35 36 37 38 39 40 41 42 43 44 45 46 47 48 49 50
000
ASUS45 KSLC 232010
RWRUT

UTAH REGIONAL WEATHER ROUNDUP
NATIONAL WEATHER SERVICE SALT LAKE CITY UT
200 PM MDT SUN APR 23 2017

UTZ001>011-023>025-232100-

NORTHERN UTAH

CITY           SKY/WX    TMP DP  RH WIND       PRES   REMARKS
BRIGHAM CITY   CLOUDY    63  30  29 N3        29.82F
HILL AFB       CLOUDY    63  34  34 W7        29.82F
LOGAN          CLOUDY    64  37  36 CALM      29.81F
OGDEN          CLOUDY    63  36  36 VRB7      29.80F
SALT LAKE CITY CLOUDY    65  40  39 W13       29.80S
TOOELE VALLEY  CLOUDY    59  41  51 N5        29.82F
WENDOVER       CLOUDY    64  34  32 E8        29.81F
HEBER CITY     CLOUDY    70  30  23 SW21      29.79F
WEST JORDAN    CLOUDY    65  45  47 NW21      29.81F

$$

UTZ011>015-024>027-232100-

CENTRAL/NORTHEAST UTAH

CITY           SKY/WX    TMP DP  RH WIND       PRES   REMARKS
PROVO AIRPORT  PTSUNNY   68  36  30 NW7       29.78F
MOAB/CANYONLAN CLOUDY    72  22  15 NW12      29.82F
DELTA          PTSUNNY   72  25  17 SW20G29   29.76F
PRICE          PTSUNNY   62  19  19 SW6       29.89F
ROOSEVELT      CLOUDY    64  23  20 E8        29.85F
VERNAL         CLOUDY    64  24  21 VRB5      29.84F

$$

UTZ013>016-019>022-027-232100-

SOUTHERN UTAH

CITY           SKY/WX    TMP DP  RH WIND       PRES   REMARKS
BRYCE CANYON   PTSUNNY   63  21  20 S16G28    29.98F
CEDAR CITY     SUNNY     68  27  21 S28G37    29.83F
MILFORD        MOSUNNY   73  25  16 SW33G46   29.77F
ST GEORGE      CLOUDY    84  25  11 S25G36    29.73F
HANKSVILLE     CLOUDY    72  21  15 SE3       29.85F
BLANDING       MOSUNNY   69  28  21 S10       30.03F

$$

REGIONAL REPORTS     COLORADO/ARIZONA

CITY           SKY/WX    TMP DP  RH WIND       PRES   REMARKS
CRAIG, CO      CLOUDY    69  26  20 SW18G28   29.86F
GRAND JUNCTION MOSUNNY   74  27  17 W17       29.83F
RIFLE, CO      CLOUDY    71  23  16 W9        29.85F
MONTROSE, CO   SUNNY     76  22  13 SW15G25   29.90F
CORTEZ, CO     CLOUDY    70  27  20 S17G25    29.99F
COLORADO CITY    N/A     81  27  13 SW17G25   29.89F
PAGE, AZ       CLOUDY    71  23  16 NE5       29.84F
GRAND CANYON   PTSUNNY   67  19  16 SW17G30   30.00F
KINGMAN, AZ    MOSUNNY   85  21   9 SW33G44   29.82F
FLAGSTAFF, AZ  MOSUNNY   67  21  17 SW25G39   30.04F

$$

REGIONAL REPORTS    NEVADA/IDAHO/WYOMING

CITY           SKY/WX    TMP DP  RH WIND       PRES   REMARKS
LAS VEGAS, NV  MOSUNNY   87  15   7 S21G33    29.67F
ELY, NY        CLOUDY    61  27  27 NW6       29.84F
ELKO, NV       CLOUDY    61  20  20 SW17G24   29.87F
POCATELLO, ID  CLOUDY    59  38  45 SW16      29.82F
BURLEY, ID     CLOUDY    58  37  45 W13       29.81F
FORT BRIDGER,  MOCLDY    66  24  20 SW17G31   29.86F
EVANSTON, WY   CLOUDY    63  27  25 SW22G33   29.84F
ROCK SPRINGS,  MOSUNNY   66  20  17 W12G20    29.82F
KEMMERER, WY     N/A     57  28  33 W20G25    29.85F

$$



USA.gov is the U.S. government's official web portal to all federal, state and local government web resources and services.